Location: Unspecified
(49.0500°N, 0.0000°E)
Time: 02:13:03
(UTC+00:00)

OTV 5 (USA 277) - Pass Details

Date: 19 June 2019
Orbit: 305 x 329 km, 54.5° (Epoch: 11 August)

Event Time Altitude Azimuth Distance (km) Brightness Sun altitude
Exits shadow 21:42:15 17° 117° (ESE) 932 ? -11.2°
Drops below altitude 10° 21:43:38 10° 89° (E) 1,256 ? -11.3°
Enters shadow 22:58:14 -31° 242° (WSW) 7,159 ? -16.2°
Maximum altitude 23:15:40 64° 334° (NNW) 370 ? -16.8°
